Weather Roundup
Issued by NWS Springfield, MO

Home | Current Version | Previous Version | Text Only | Print | Product List | Glossary On
Versions: 1 2 3 4 5 6 7 8 9 10 11 12 13 14 15 16 17 18 19 20 21 22 23 24 25 26 27 28 29 30 31 32 33 34 35 36 37 38 39 40 41 42 43 44 45 46 47 48 49 50
814
NZUS99 KSGF 281107
HRRSGF

HOURLY WEATHER
NATIONAL WEATHER SERVICE SPRINGFIELD MO
600 AM CDT THU APR 28 2016

......SGF CWA......

CITY           SKY/WX    TMP DP  RH WIND       PRES   REMARKS
SPRINGFIELD    CLEAR     51  43  74 W10       29.86R
JOPLIN         CLEAR     49  42  77 W6        29.88R
WEST PLAINS    CLEAR     50  46  86 MISG      29.84R
ROLLA          CLEAR     48  46  93 SW8       29.78R
OSAGE BEACH    CLEAR     50  39  66 SW5       29.81R

......SURROUNDING SGF CWA......

CITY           SKY/WX    TMP DP  RH WIND       PRES   REMARKS
CHANUTE        CLOUDY    48  39  71 W9        29.88R
PARSONS        CLOUDY    47  41  80 W6        29.90R
COFFEYVILLE    CLEAR     50  41  71 W3        29.89R
EMPORIA        CLEAR     43  36  76 W10       29.86R
GROVE OK       CLEAR     54  43  66 CALM      29.91R
ROGERS AR      CLEAR     50  43  77 W3        29.90R
SILOAM SPRINGS CLEAR     46  39  76 CALM      29.90S
HARRISON AR    CLEAR     52  45  77 W6        29.88R
NEAR YELLVILLE CLEAR    N/A N/A N/A CALM      29.84R

......KANSAS AND MISSOURI......

CITY           SKY/WX    TMP DP  RH WIND       PRES   REMARKS
KANSAS CTY INT CLOUDY    46  40  79 W9        29.79R
DOWNTOWN KC    CLOUDY    48  39  71 W13G20    29.79R
COLUMBIA       CLEAR     50  48  93 W6        29.78R
SEDALIA        CLEAR     50  43  77 SW10      29.80R
ST JOSEPH      CLOUDY    47  44  90 W12       29.77R
ST LOUIS       CLEAR     56  51  84 CALM      29.78R
SPIRIT OF STL  CLEAR     52  51  97 CALM      29.77R
KIRKSVILLE     CLEAR     48  42  80 SW7       29.75R
WICHITA        CLOUDY    49  37  63 NW15      29.90R
TOPEKA         MOCLDY    46  39  76 W8        29.83R
OLATHE         MOCLDY    44  38  79 W5        29.80R

......TENNESSEE......

CITY           SKY/WX    TMP DP  RH WIND       PRES   REMARKS
MEMPHIS        PTCLDY    67  63  87 W5        29.84R
NASHVILLE      CLOUDY    66  63  90 S3        29.84R

......ARKANSAS.......

CITY           SKY/WX    TMP DP  RH WIND       PRES   REMARKS
FAYETTEVILLE   CLEAR     45  45 100 CALM      29.90R
FT SMITH       CLEAR     56  48  74 CALM      29.87R
LITTLE ROCK    CLEAR     60  53  77 NW3       29.84R

......OKLAHOMA.......

CITY           SKY/WX    TMP DP  RH WIND       PRES   REMARKS
TULSA          CLEAR     51  46  83 N6        29.88R
PONCA CITY     PTCLDY    45  43  93 CALM      29.91R
MCALESTER      PTCLDY    54  49  83 CALM      29.87R
OKLAHOMA CITY  PTCLDY    53  45  74 NE10      29.87S

......IOWA............

CITY           SKY/WX    TMP DP  RH WIND       PRES   REMARKS
DES MOINES     DRIZZLE   48  42  80 SE3       29.71S
QUAD CITIES    CLOUDY    51  48  89 E5        29.75R FOG

......ILLINOIS........

CITY           SKY/WX    TMP DP  RH WIND       PRES   REMARKS
QUINCY         FOG       49  48  97 S5        29.74R VSB 1/4
CHICAGO        CLOUDY    43  41  93 E14       29.81S




USA.gov is the U.S. government's official web portal to all federal, state and local government web resources and services.